This is the latest recevied weather packets stored in our database for station/object KA3BQE-13. If no packets are shown the sender has not sent any weather packets the latest 1 day(s).
| Time | Temp. | Humidity | Pressure | Rain* | Wind** | Luminosity | Snow |
|---|---|---|---|---|---|---|---|
| 1778019451 | 10.56° C | 80% | 1010.7 hPa | 0 mm | 0 m/s | 93 W/m² | - |
| 1778019147 | 10° C | 80% | 1010.9 hPa | 0 mm | 0 m/s | 92 W/m² | - |
| 1778018844 | 10° C | 80% | 1010.4 hPa | 0 mm | 0 m/s | 103 W/m² | - |
| 1778018542 | 10.56° C | 82% | 1010.8 hPa | 0 mm | 0.89 m/s, 14° | 59 W/m² | - |
| 1778018240 | 10.56° C | 77% | 1011 hPa | 0 mm | 0 m/s | 68 W/m² | - |
| 1778017937 | 10.56° C | 79% | 1010.7 hPa | 0 mm | 0.89 m/s, 21° | 96 W/m² | - |
| 1778017635 | 10.56° C | 77% | 1010.7 hPa | 0 mm | 0.45 m/s, 3° | 136 W/m² | - |
| 1778017333 | 10.56° C | 81% | 1010.9 hPa | 0 mm | 0 m/s | 115 W/m² | - |
| 1778017030 | 10.56° C | 80% | 1010.9 hPa | 0 mm | 0 m/s | 143 W/m² | - |
| 1778016727 | 10.56° C | 77% | 1010.9 hPa | 0 mm | 1.34 m/s, 33° | 157 W/m² | - |
| 1778016422 | 10.56° C | 77% | 1011.2 hPa | 0 mm | 0.89 m/s, 351° | 161 W/m² | - |
| 1778016119 | 10.56° C | 78% | 1011.1 hPa | 0 mm | 0 m/s | 156 W/m² | - |
| 1778015816 | 10.56° C | 77% | 1011.5 hPa | 0 mm | 0.45 m/s, 1° | 149 W/m² | - |
| 1778015514 | 11.11° C | 80% | 1011.2 hPa | 0 mm | 0 m/s | 218 W/m² | - |
| 1778015211 | 10.56° C | 81% | 1011.4 hPa | 0 mm | 0 m/s | 289 W/m² | - |
| 1778014907 | 10° C | 83% | 1011.4 hPa | 0 mm | 0 m/s | 241 W/m² | - |
| 1778014605 | 10° C | 82% | 1011.8 hPa | 0 mm | 0 m/s | 172 W/m² | - |
| 1778014302 | 10° C | 85% | 1012 hPa | 0 mm | 0.45 m/s, 17° | 187 W/m² | - |
| 1778014003 | 10° C | 86% | 1012 hPa | 0 mm | 0.45 m/s, 324° | 185 W/m² | - |
| 1778013691 | 10° C | 84% | 1011.9 hPa | 0 mm | 0 m/s | 163 W/m² | - |
| 1778013382 | 10° C | 87% | 1011.9 hPa | 0 mm | 0 m/s | 130 W/m² | - |
| 1778013079 | 10° C | 86% | 1012.1 hPa | 0 mm | 0.89 m/s, 348° | 150 W/m² | - |
| 1778012775 | 10° C | 83% | 1011.9 hPa | 0 mm | 0.89 m/s, 34° | 179 W/m² | - |
| 1778012471 | 10° C | 87% | 1012 hPa | 0 mm | 0 m/s | 173 W/m² | - |
| 1778012168 | 10° C | 85% | 1012.1 hPa | 0 mm | 0.89 m/s, 229° | 228 W/m² | - |
* Rain latest hour (hover to see other rain measurements)
** Current wind speed in m/s (hover to see current wind gust speed)